Regional Weather Roundup
Issued by NWS

Home | Current Version | Previous Version | Graphics & Text | Print | Product List | Glossary On
Versions: 1 2 3 4 5 6 7 8 9 10 11 12 13 14 15 16 17 18 19 20 21 22 23 24 25 26 27 28 29 30 31 32 33 34 35 36 37 38 39 40 41 42 43 44 45 46 47 48 49 50
000
ASUS45 KBOU 051307
RWRCO

WEATHER ROUNDUP FOR COLORADO
NATIONAL WEATHER SERVICE DENVER/BOULDER CO
600 AM MST THU MAR 05 2015

NOTE: "FAIR" INDICATES FEW OR NO CLOUDS BELOW 12000 FEET WITH NO
SIGNIFICANT WEATHER AND/OR OBSTRUCTIONS TO VISIBILITY.

COZ001>005-013-030-031-051400-
...NORTHWEST COLORADO...

CITY           SKY/WX    TMP DP  RH WIND       PRES   REMARKS
CRAIG          MOCLDY     4  -1  80 SW3       30.35R
HAYDEN         PTCLDY     5  -2  72 SE12      30.32S WCI -11
MEEKER         PTCLDY     8   1  73 CALM      30.36R
MOUNT WERNER   NOT AVBL
STEAMBOAT SPGS CLOUDY     2  -4  78 CALM      30.33R
WALDEN         CLEAR      3  -4  72 SE6       30.23R WCI  -8
$$

COZ006>008-011-051400-
...WEST CENTRAL VALLEYS...

CITY           SKY/WX    TMP DP  RH WIND       PRES   REMARKS
GRAND JUNCTION CLEAR     20  10  65 E13       30.38R WCI   7
MONTROSE       CLEAR     18   8  65 SE7       30.40R WCI   9
EAGLE          PTCLDY     3   0  85 CALM      30.44R
RIFLE          PTCLDY    15   8  73 SE3       30.42R
DELTA          CLEAR     21  10  62 NE6       30.42R WCI  13
NUCLA          CLEAR     19  10  68 E3        30.40R
$$

COZ017>023-064>068-051400-
...SOUTHWEST COLORADO...

CITY           SKY/WX    TMP DP  RH WIND       PRES   REMARKS
DURANGO        PTCLDY    10   3  73 NE5       30.32R WCI   2
CORTEZ         CLEAR     16   9  74 N6        30.35R WCI   7
PAGOSA SPRINGS PTCLDY     1  -4  77 CALM      30.30S
TELLURIDE      MOCLDY     8  -2  63 SE8       30.31R WCI  -4
WOLF CREEK PAS PTCLDY     1  -4  78 SW10      30.24S WCI -14
$$

COZ009-010-012-014-032>034-037-058>063-051400-
...CENTRAL COLORADO...

CITY           SKY/WX    TMP DP  RH WIND       PRES   REMARKS
ASPEN          CLEAR      3  -5  69 SW9       30.32R WCI -12
BUENA VISTA    PTCLDY    10  -5  51 CALM      30.25S
COPPER MTN     NOT AVBL
BERTHOUD PASS  FAIR      -6 -13  71 NW35G40   30.05S WCI -35
COTTONWOOD PAS PTCLDY    16 -15  24 NW8G20    30.17S WCI   5
GUNNISON       MOCLDY    -6 -18  54 CALM      30.40R
KREMMLING      PTCLDY     0  -6  78 CALM      30.38R
LEADVILLE      PTCLDY    -3 -12  65 N8        30.22R WCI -18
SALIDA         PTCLDY    17  -7  34 NW16      30.32F WCI   2
SUNLIGHT       PTCLDY     9   5  85 SW3         N/A
WILKERSON PASS PTCLDY     9 -15  33 NW13G22   30.12R WCI  -7
$$

COZ069>075-051400-
...SAN LUIS VALLEY/SANGRE DE CRISTO MOUNTAINS...

CITY           SKY/WX    TMP DP  RH WIND       PRES   REMARKS
ALAMOSA        PTCLDY     7   0  73 SW5       30.31R WCI  -2
LA VETA PASS   MOCLDY     5  -8  56 MISG      30.14S
SAGUACHE       MOCLDY    14   3  62 W9        30.31R WCI   2
$$

COZ035-036-038>040-051400-
...NORTHERN COLORADO FRONT RANGE...

CITY           SKY/WX    TMP DP  RH WIND       PRES   REMARKS
DENVER INTL AP MOCLDY    15  -2  46 S14       30.14S WCI   0
DMNS CITY PARK   N/A     15   1  54 S6G12     30.17S WCI   6
AURORA         CLEAR     14  -1  49 S16       30.15S WCI  -2
FRONT RANGE AP NOT AVBL
ERIE MUNI ARPT PTCLDY     3   0  88 CALM      30.18R
BOULDER MUN AP PTCLDY     9   5  85 CALM      30.16R
CENTENNIAL     PTCLDY    15  -2  46 S9        30.15R WCI   3
BROOMFIELD     PTCLDY    14   1  57 N8        30.14S WCI   3
FORT COLLINS   PTCLDY     5   1  85 CALM      30.18S
LONGMONT       PTCLDY     2  -2  81 CALM      30.20R
$$

COZ041-046-047-076>085-087-088-051400-
...PIKES PEAK/PALMER DIVIDE AND SOUTHERN FOOTHILLS...

CITY           SKY/WX    TMP DP  RH WIND       PRES   REMARKS
COLO. SPRINGS  PTCLDY     1  -6  72 N13       30.19S WCI -17
A. F. ACADEMY  PTCLDY    -3  -8  79 N7        30.16S WCI -16
ELLICOTT       NOT AVBL
FALCON         PTCLDY     3  -8  59 W6        30.17S WCI  -8
FORT CARSON    CLEAR      3  -1  85 NW8       30.18S WCI -11
LIMON          PTCLDY    -7 -12  79 NW7       30.20S WCI -21
MONUMENT HILL  PTCLDY    12  -6  44 SW13      30.13S WCI  -3
TRINIDAD       PTCLDY    10   3  73 SW15      30.24F WCI  -7
$$

COZ042>045-048>051-090-091-051400-
...NORTHEAST COLORADO...

CITY           SKY/WX    TMP DP  RH WIND       PRES   REMARKS
GREELEY ARPT   PTCLDY     3  -6  66 CALM      30.19S
AKRON          CLEAR     13   4  67 SW12      30.19S WCI  -1
BURLINGTON     CLEAR     14   7  73 W10       30.26S WCI   1
WRAY           PTCLDY    10   6  84 SW5       30.26S WCI   1
STERLING       CLEAR     10   5  79 SW8       30.23S WCI  -1
HOLYOKE        NOT AVBL
FORT MORGAN    CLEAR      5   1  81 W6        30.21F WCI  -5
$$

COZ086-089-092>099-051400-
...SOUTHEAST COLORADO...

CITY           SKY/WX    TMP DP  RH WIND       PRES   REMARKS
PUEBLO         PTCLDY     5   2  87 W7        30.27S WCI  -7
LA JUNTA       PTCLDY    11   5  77 W8        30.31S WCI  -1
LAMAR          CLEAR     13   9  84 SW12      30.32S WCI  -1
SPRINGFIELD      N/A      8   4  83 SW12      30.31S WCI  -7
$$


USA.gov is the U.S. government's official web portal to all federal, state and local government web resources and services.